TimeCST,TemperatureF,Dew PointF,Humidity,Sea Level PressureIn,VisibilityMPH,Wind Direction,Wind SpeedMPH,Gust SpeedMPH,PrecipitationIn,Events,Conditions,WindDirDegrees,DateUTC
12:00 AM,28.4,24.8,86,29.83,4.0,WSW,9.2,-,0.00,Snow,Light Snow,240,2013-02-23 06:00:00
12:16 AM,28.4,24.8,86,29.83,4.0,WSW,11.5,-,0.00,Snow,Light Snow,240,2013-02-23 06:16:00
12:52 AM,28.0,24.1,85,29.86,5.0,WSW,9.2,-,0.00,,Overcast,240,2013-02-23 06:52:00
1:11 AM,28.4,24.8,86,29.83,4.0,WSW,8.1,-,0.00,Snow,Light Snow,240,2013-02-23 07:11:00
1:52 AM,28.0,23.0,81,29.86,4.0,WSW,11.5,-,0.00,Snow,Light Snow,250,2013-02-23 07:52:00
2:52 AM,27.0,23.0,85,29.86,5.0,WSW,8.1,-,0.00,,Overcast,240,2013-02-23 08:52:00
3:52 AM,27.0,21.0,78,29.86,6.0,WSW,9.2,-,N/A,,Haze,250,2013-02-23 09:52:00
4:52 AM,26.1,21.0,81,29.87,7.0,WSW,8.1,-,N/A,,Overcast,240,2013-02-23 10:52:00
5:52 AM,26.1,19.9,78,29.88,8.0,WSW,9.2,-,N/A,,Overcast,250,2013-02-23 11:52:00
6:52 AM,25.0,19.9,81,29.90,6.0,WSW,10.4,-,N/A,,Haze,240,2013-02-23 12:52:00
7:52 AM,24.1,19.0,81,29.90,6.0,WSW,10.4,-,0.00,,Haze,240,2013-02-23 13:52:00
8:52 AM,25.0,19.0,78,29.90,6.0,WSW,10.4,-,N/A,,Haze,240,2013-02-23 14:52:00
9:52 AM,26.1,19.0,75,29.90,7.0,WSW,10.4,-,N/A,,Overcast,240,2013-02-23 15:52:00
10:52 AM,27.0,19.9,75,29.91,7.0,WSW,11.5,-,0.00,Snow,Light Snow,240,2013-02-23 16:52:00
11:52 AM,27.0,19.9,75,29.90,7.0,SW,13.8,18.4,0.00,Snow,Light Snow,220,2013-02-23 17:52:00
12:43 PM,28.4,19.4,69,29.86,9.0,SW,10.4,-,0.00,,Overcast,230,2013-02-23 18:43:00
12:52 PM,28.0,19.9,72,29.89,10.0,WSW,11.5,-,0.00,,Overcast,240,2013-02-23 18:52:00
1:52 PM,28.9,19.0,67,29.88,10.0,WSW,13.8,-,N/A,,Mostly Cloudy,240,2013-02-23 19:52:00
2:52 PM,28.0,18.0,66,29.89,10.0,WSW,13.8,-,N/A,,Scattered Clouds,240,2013-02-23 20:52:00
3:52 PM,28.0,18.0,66,29.90,10.0,SW,11.5,-,N/A,,Mostly Cloudy,230,2013-02-23 21:52:00
4:52 PM,27.0,18.0,69,29.91,10.0,WSW,11.5,-,N/A,,Scattered Clouds,240,2013-02-23 22:52:00
5:52 PM,26.1,17.1,69,29.92,10.0,WSW,6.9,-,N/A,,Mostly Cloudy,240,2013-02-23 23:52:00
6:52 PM,25.0,16.0,69,29.94,10.0,WSW,6.9,-,N/A,,Mostly Cloudy,250,2013-02-24 00:52:00
7:52 PM,24.1,17.1,75,29.94,10.0,WSW,8.1,-,N/A,,Mostly Cloudy,250,2013-02-24 01:52:00
8:52 PM,24.1,16.0,71,29.94,10.0,West,10.4,-,N/A,,Overcast,260,2013-02-24 02:52:00
9:52 PM,24.1,16.0,71,29.94,10.0,WSW,6.9,-,N/A,,Partly Cloudy,250,2013-02-24 03:52:00
10:52 PM,21.9,16.0,78,29.94,10.0,West,4.6,-,N/A,,Partly Cloudy,260,2013-02-24 04:52:00
11:52 PM,21.9,16.0,78,29.94,10.0,West,5.8,-,N/A,,Scattered Clouds,280,2013-02-24 05:52:00